Location: Mohawk View
(42.7837°N, 73.7885°W)
Time: 17:05:45
(UTC+00:00)

IRIDIUM 114 - Pass Details

Date: 17 June 2021
Orbit: 776 x 779 km, 86.4° (Epoch: 02 August)

Event Time Altitude Azimuth Distance (km) Brightness Sun altitude
Rises 07:48:28 0° 354° (N) 3,272 8.3 -12.8°
Reaches altitude 10° 07:50:50 10° 353° (N) 2,339 7.4 -12.6°
Maximum altitude 07:56:02 71° 270° (W) 823 4.3 -11.9°
Drops below altitude 10° 08:01:12 10° 187° (S) 2,320 6.3 -11.3°
Enters shadow 08:01:30 - 187° (S) 2,433 6.4 -11.3°
